Terug naar catalogus

STARLINK-4528

ActiefCommunicatieVLEO
NORAD 53399·PAYLOAD·🇺🇸 United States

Gelanceerd Aug 10, 2022 vanaf Cape Canaveral Space Force Station

Loading…

Volgende Passages (komende 24 uur)

TLE

VersSource: CelesTrak SupGP

Epoch: Sep 15, 2026, 01:57 UTC

1 53399C 22097M   26258.08173611  .00035451  00000+0  10476-2 0  2584
2 53399  53.1604 346.7241 0001163  89.8085  99.4096 15.34366209    13

Volg STARLINK-4528 in realtime met AllMySat

Download on the App Store